Location: Paddlesworth
(51.1000°N, 1.1333°E)
Time: 13:58:47
(UTC+00:00)

Cosmos 1238 Rocket - Pass Details

Date: 11 May 2021
Orbit: 374 x 1021 km, 82.9° (Epoch: 19 June)

Event Time Altitude Azimuth Distance (km) Brightness Sun altitude
Rises 22:12:32 0° 351° (N) 3,735 8.5 -17.4°
Reaches altitude 10° 22:15:14 10° 354° (N) 2,735 7.5 -17.6°
Maximum altitude 22:21:32 67° 77° (ENE) 962 3.9 -18.0°
Enters shadow 22:24:14 32° 151° (SSE) 1,425 4.3 -18.2°
